Tracking 20942 objects as of 13-Jul-2020
HD Live streaming from Space Station
objects crossing your sky now

THOR ABLESTAR DEB

Track THOR ABLESTAR DEB now!
10-day predictions


NORAD ID: 120
Int'l Code: 1961-015E
Perigee: 734.2 km
Apogee: 894.4 km
Inclination: 66.7 °
Period: 101.0 minutes
Semi major axis: 7185 km
RCS: 0.214 m2 (medium)
Launch date: June 29, 1961
Source: United States (US)
Launch site: AIR FORCE EASTERN TEST RANGE (AFETR)

Note: This is SATELLITE DEBRIS
aabbcc
Your satellite tracking list
Your tracking list is empty




NASA's NSSDC Master Catalog

Two Line Element Set (TLE):
1   120U 61015E   20194.52607819 -.00000045 +00000-0 +15786-4 0  9991
2   120 066.7075 307.7430 0111442 130.2082 230.8833 14.25399796039340
Source of the keplerian elements: AFSPC